Showing default

OPS 0100 (TRANSIT 15), 2754

Orbit data source: Space-Track

OPS 0100 (TRANSIT 15), 2754 is a payload satellite owned by USN NAVAIR (US) in LEO that was launched on Fri, 14 Apr 1967 UTC via an SCOUT A launch vehicle from the Air Force Western Test Range (AFWTR). Payload-class satellites include a variety of spacecraft equipped with specific instruments for various scientific and technological missions. These include communications satellites like Starlink; space stations such as the ISS; scientific satellites like the Hubble; Earth observation satellites from companies like Planet Labs, Umbra, and HawkEye 360; GPS; miniature CubeSats for education and research; and military/defense satellites.

Loading next visibility...
Identifier
2754, 1967-034A
Orbit
LEO
Country
Flag of USUS
Related business
Manufacturer
APL
Mission
Spacecraft
Bus & Motor
TRANSIT 5, Unknown motor
Mass
~50 kg wet, ~50 kg dry
Launch date (UTC)
1967-04-14 (59 years ago)
Launch vehicle
SCOUT A
Launch site
Air Force Western Test Range (AFWTR)
Object type
Payload
Rocket body
Debris
Shape & HBR
Unknown
Radar Cross Section
Large (>1 m²)

Expand to show TLE details & history
Last TLE update: 1 day ago

TLE from 1 day ago
0 OPS 0100 (TRANSIT 15)
1 02754U 67034A   25339.16393844  .00000231  00000-0  31105-3 0  9997
2 02754  90.2278  30.6082 0019160 359.9474  22.6890 13.57354528899797
Epoch: 2025-12-05T03:56Z
TLE epoch observation values (Epoch: 2025-12-05T03:56:04.281Z)
Latitude
22.73621°
Longitude
-102.71457°
Altitude
1,035.024 km
Speed
7.343 km/s
True Right ascension
02h 02m 03s
True Declination
22° 37' 06"
Sunlit
Object was in full shadow at epoch
Visualization orbit readout
Latitude
Unknown
Longitude
Unknown
Altitude
Unknown
Speed
Unknown
Apparent Right ascension
Unknown
Apparent Declination
Unknown
Sunlit
N/A
Visualization observer readout
Local Sidereal Time
02:27:33
Azimuth
Unknown
Elevation
Unknown
Doppler factor
Unknown
Orbital elements
Apogee altitude
1,056.579 km
Perigee altitude
1,028.143 km
Semi-major axis
7,420.498 km
Eccentricity
0.00192
Inclination
90.2278°
RAAN
30.6082°
Arg. of periapsis
359.9474°
True anomaly
22.77388°
Mean anomaly
22.689°
Eccentric anomaly
22.73142°
Mean motion
3.39542 °/min
Orbital period
106.03 mins
BSTAR
0.00031105
Loading maneuver chart data...
Computing Atmospheric mass density...
Loading historical data...
Loading historical data...
Loading historical data...
Loading historical data...
Loading historical data...
Loading historical data...
Loading historical data...

Documentation

Showing up to 5 results
|